Kolkata, India

11:23 AM IST on July 26, 2017 (GMT +0530)
Netaji Subhash Chandra Bose International

Weather History for VECC - September, 2013

Change the Weather History Date:

Monday, September 30, 2013

  Actual Average Record
Temperature  
Mean Temperature 79 °F -  
Max Temperature 82 °F 89 °F 97 °F (2012)
Min Temperature 76 °F 77 °F 75 °F (1997)
Cooling Degree Days 14    
Growing Degree Days 29 (Base 50)    
Moisture  
Dew Point 77 °F    
Average Humidity 94    
Maximum Humidity 98    
Minimum Humidity 93    
Precipitation  
Precipitation 0.00 in - - ()
Sea Level Pressure  
Sea Level Pressure 29.60 in    
Wind  
Wind Speed 5 mph ()    
Max Wind Speed 9 mph    
Max Gust Speed -    
Visibility 1.5 miles    
Events Rain , Hail , Thunderstorm    
Averages and records for this station are not official NWS values.
T = Trace of Precipitation, MM = Missing Value Source: Averaged Metar Reports

Daily Weather History Graph

Daily Weather History Graph

Search for Another Location

Airport or City:

Trip Planner

Search our weather history database for the weather conditions in past years. The results will help you decide how hot, cold, wet, or windy it might be!

Date:

Astronomy

Sep. 30, 2013 Rise Set
Actual Time 5:27 AM IST 5:24 PM IST
Civil Twilight 5:04 AM IST 5:47 PM IST
Nautical Twilight 4:38 AM IST 6:13 PM IST
Astronomical Twilight 4:12 AM IST 6:39 PM IST
Moon 1:05 AM IST (9/30) 2:12 PM IST (9/30)
Length of Visible Light 12h 42m
Length of Day
11h 57m
Waning Crescent, 22% of the Moon is Illuminated
Sep 30
Waning Crescent
Oct 5
New
Oct 12
First Quarter
Oct 19
Full
Oct 27
Last Quarter

Hourly Weather History & Observations

Time (IST) Temp. Heat Index Dew Point Humidity Pressure Visibility Wind Dir Wind Speed Gust Speed Precip Events Conditions
12:20 AM 78.8 °F - 77.0 °F 94% 29.56 in - ESE 5.8 mph - N/A   Haze
12:50 AM 78.8 °F - 77.0 °F 94% 29.56 in 1.9 mi Calm Calm - N/A Rain Light Rain
1:50 AM 78.8 °F - 77.0 °F 94% 29.56 in 1.4 mi ENE 3.5 mph - N/A Rain Light Rain
2:20 AM 77.0 °F - 75.2 °F 94% 29.56 in 1.2 mi South 5.8 mph - N/A Rain , Thunderstorm Light Thunderstorms and Rain
2:30 AM 77 °F - 76 °F 98% 29.58 in 1 mi Calm Calm - - Hail , Thunderstorm Thunderstorms with Hail
2:50 AM 77.0 °F - 75.2 °F 94% 29.56 in 0.9 mi SE 5.8 mph - N/A Rain , Thunderstorm Thunderstorms and Rain
3:20 AM 77.0 °F - 75.2 °F 94% 29.56 in 1.1 mi NE 4.6 mph - N/A Rain , Thunderstorm Light Thunderstorms and Rain
3:50 AM 77.0 °F - 75.2 °F 94% 29.53 in 1.2 mi NE 5.8 mph - N/A Rain , Thunderstorm Light Thunderstorms and Rain
4:20 AM 77.0 °F - 75.2 °F 94% 29.56 in 1.6 mi NE 5.8 mph - N/A Rain , Thunderstorm Light Thunderstorms and Rain
5:20 AM 77.0 °F - 75.2 °F 94% 29.56 in 1.2 mi ENE 6.9 mph - N/A Rain , Thunderstorm Light Thunderstorms and Rain
5:30 AM 77 °F - 76 °F 96% 29.60 in 1 mi Calm Calm - - Hail , Thunderstorm Thunderstorms with Hail
5:50 AM 77.0 °F - 75.2 °F 94% 29.59 in 1.2 mi East 6.9 mph - N/A Rain , Thunderstorm Light Thunderstorms and Rain
6:20 AM 77.0 °F - 75.2 °F 94% 29.59 in 1.6 mi East 6.9 mph - N/A Rain Light Rain
6:50 AM 77.0 °F - 75.2 °F 94% 29.62 in 1.6 mi ESE 6.9 mph - N/A Rain Light Rain
7:20 AM 77.0 °F - 75.2 °F 94% 29.62 in 1.6 mi East 5.8 mph - N/A Rain Light Rain
7:50 AM 77.0 °F - 75.2 °F 94% 29.65 in 1.6 mi ESE 4.6 mph - N/A Rain Light Rain
8:20 AM 77.0 °F - 75.2 °F 94% 29.65 in 1.6 mi SSE 3.5 mph - N/A Rain Light Rain
8:30 AM 77 °F - 76 °F 98% 29.67 in 1 mi East 2.3 mph - - Rain Light Rain
8:50 AM 77.0 °F - 75.2 °F 94% 29.65 in 1.6 mi Calm Calm - N/A Rain Light Rain
9:20 AM 78.8 °F - 77.0 °F 94% 29.65 in 1.6 mi ESE 3.5 mph - N/A Rain Light Rain
9:50 AM 78.8 °F - 77.0 °F 94% 29.65 in 1.6 mi ESE 4.6 mph - N/A Rain Light Rain
10:20 AM 78.8 °F - 77.0 °F 94% 29.65 in 1.6 mi ESE 5.8 mph - N/A Rain Light Rain
10:50 AM 78.8 °F - 77.0 °F 94% 29.65 in 1.6 mi ESE 5.8 mph - N/A Rain Light Rain
11:20 AM 78.8 °F - 77.0 °F 94% 29.65 in 1.6 mi ESE 5.8 mph - N/A Rain Light Rain
11:50 AM 78.8 °F - 77.0 °F 94% 29.62 in 1.6 mi ESE 6.9 mph - N/A Rain Light Rain
12:20 PM 78.8 °F - 77.0 °F 94% 29.59 in 1.4 mi East 6.9 mph - N/A Rain Light Rain
12:50 PM 78.8 °F - 77.0 °F 94% 29.59 in 1.6 mi ENE 5.8 mph - N/A Rain Light Rain
1:20 PM 78.8 °F - 77.0 °F 94% 29.59 in 1.6 mi East 8.1 mph - N/A Rain Light Rain
1:50 PM 80.6 °F 88.1 °F 78.8 °F 94% 29.59 in 1.7 mi East 6.9 mph - N/A Rain Light Rain
2:20 PM 80.6 °F 88.1 °F 78.8 °F 94% 29.56 in 1.7 mi ENE 8.1 mph - N/A Rain Light Rain
2:30 PM 81 °F - 80 °F 94% 29.59 in 1 mi ENE 2.3 mph - - Rain Light Rain
2:50 PM 80.6 °F 88.1 °F 78.8 °F 94% 29.56 in 1.7 mi ENE 9.2 mph - N/A Rain Light Rain
3:20 PM 80.6 °F 88.1 °F 78.8 °F 94% 29.56 in 1.7 mi ENE 8.1 mph - N/A Rain Light Rain
3:50 PM 80.6 °F 88.1 °F 78.8 °F 94% 29.56 in 1.7 mi East 6.9 mph - N/A   Haze
4:20 PM 80.6 °F 88.1 °F 78.8 °F 94% 29.56 in 2.2 mi ENE 8.1 mph - N/A   Haze
4:50 PM 80.6 °F 88.1 °F 78.8 °F 94% 29.56 in - ESE 8.1 mph - N/A   Haze
5:20 PM 80.6 °F 88.1 °F 78.8 °F 94% 29.56 in - East 5.8 mph - N/A   Haze
5:30 PM 80 °F - 78 °F 93% 29.60 in 1 mi ENE 2.3 mph - -   Haze
5:50 PM 80.6 °F 88.1 °F 78.8 °F 94% 29.56 in - ENE 6.9 mph - N/A   Haze
6:20 PM 80.6 °F 88.1 °F 78.8 °F 94% 29.59 in 2.2 mi NE 6.9 mph - N/A   Haze
6:50 PM 80.6 °F 88.1 °F 78.8 °F 94% 29.59 in - NE 6.9 mph - N/A   Haze
7:20 PM 80.6 °F 88.1 °F 78.8 °F 94% 29.59 in - NNE 6.9 mph - N/A   Haze
7:50 PM 80.6 °F 88.1 °F 78.8 °F 94% 29.62 in - NE 4.6 mph - N/A   Haze
8:20 PM 78.8 °F - 77.0 °F 94% 29.62 in - ENE 4.6 mph - N/A   Haze
8:30 PM 79 °F - 79 °F 98% 29.67 in 1 mi Calm Calm - -   Haze
8:50 PM 78.8 °F - 77.0 °F 94% 29.65 in - NE 4.6 mph - N/A   Haze
9:20 PM 78.8 °F - 77.0 °F 94% 29.65 in 1.9 mi ENE 6.9 mph - N/A   Haze
9:50 PM 78.8 °F - 77.0 °F 94% 29.65 in 1.9 mi ENE 5.8 mph - N/A   Haze
10:20 PM 78.8 °F - 77.0 °F 94% 29.65 in 1.9 mi East 5.8 mph - N/A   Haze
10:50 PM 78.8 °F - 77.0 °F 94% 29.65 in 1.9 mi ENE 4.6 mph - N/A   Haze
11:20 PM 78.8 °F - 77.0 °F 94% 29.65 in 1.9 mi ENE 5.8 mph - N/A   Haze
11:30 PM 79 °F - 78 °F 95% 29.68 in 1 mi ENE 2.3 mph - -   Haze
11:50 PM 78.8 °F - 77.0 °F 94% 29.62 in 1.9 mi ENE 5.8 mph - N/A   Haze